This demonstration page uses our WeatherBlox Daily Observations layout. Learn more.

Left ArrowRight Arrow

38.20091, -84.87328

Hourly Observations for August 25, 2019

Temp ( °F °C ) Dew Point ( °F °C ) Humidity (%) Winds ( mph kmh ) Pressure ( in mb ) Visibility ( mi km ) Precip ( " mm )
12:53 am 00:53 Clear 66 18.9 55 12.8 68 68 ENE 6 9 30.10 1019 10 16 0.00 0.00
1:53 am 01:53 Clear 65 18.3 55 12.8 70 70 NE 6 9 30.08 1019 10 16 0.00 0.00
2:53 am 02:53 Clear 64 17.8 55 12.8 73 73 NE 6 9 30.07 1018 10 16 0.00 0.00
3:53 am 03:53 Clear 62 16.7 55 12.8 78 78 NE 5 7 30.06 1018 10 16 0.00 0.00
4:53 am 04:53 Clear 62 16.7 55 12.8 78 78 NE 5 7 30.05 1018 10 16 0.00 0.00
5:53 am 05:53 Clear 60 15.6 55 12.8 84 84 ENE 6 9 30.05 1018 10 16 0.00 0.00
6:53 am 06:53 Clear 60 15.6 56 13.3 86 86 ENE 6 9 30.05 1018 10 16 0.00 0.00
7:53 am 07:53 Sunny 62 16.7 57 13.9 84 84 E 5 7 30.07 1018 10 16 0.00 0.00
8:53 am 08:53 Sunny 66 18.9 58 14.4 75 75 E 7 11 30.07 1018 10 16 0.00 0.00
9:53 am 09:53 Sunny 68 20 59 15 73 73 E 6 9 30.07 1018 10 16 0.00 0.00
10:53 am 10:53 Partly Cloudy 72 22.2 61 16.1 68 68 ENE 8 13 30.07 1018 10 16 0.00 0.00
11:53 am 11:53 Partly Cloudy 76 24.4 63 17.2 64 64 E 8 13 30.05 1018 10 16 0.00 0.00
12:53 pm 12:53 Mostly Sunny 78 25.6 64 17.8 62 62 VRB 6 9 30.04 1017 10 16 0.00 0.00
1:53 pm 13:53 Partly Cloudy 80 26.7 64 17.8 58 58 ENE 7 11 30.03 1017 10 16 0.00 0.00
2:53 pm 14:53 Mostly Cloudy 82 27.8 64 17.8 55 55 ENE 10 17 30.01 1016 10 16 0.00 0.00
3:53 pm 15:53 Mostly Cloudy 83 28.3 65 18.3 55 55 ESE 8 13 29.98 1015 10 16 0.00 0.00
4:53 pm 16:53 Mostly Cloudy 83 28.3 66 18.9 57 57 E 9 15 29.96 1015 10 16 0.00 0.00
5:53 pm 17:53 Cloudy 82 27.8 66 18.9 58 58 E 7 11 29.96 1014 10 16 0.00 0.00
6:53 pm 18:53 Cloudy 81 27.2 66 18.9 61 61 E 6 9 29.95 1014 10 16 0.00 0.00
7:53 pm 19:53 Cloudy 80 26.7 66 18.9 62 62 E 6 9 29.96 1014 10 16 0.00 0.00
8:53 pm 20:53 Cloudy 78 25.6 66 18.9 67 67 ESE 7 11 29.96 1015 10 16 0.00 0.00
9:53 pm 21:53 Cloudy 77 25 68 20 74 74 E 6 9 29.98 1015 10 16 0.00 0.00
10:53 pm 22:53 Cloudy 76 24.4 67 19.4 74 74 ESE 7 11 29.97 1015 10 16 0.00 0.00
11:53 pm 23:53 Cloudy 74 23.3 68 20 82 82 E 6 9 29.97 1015 10 16 0.00 0.00

Powered by AerisWeather